Lexington Weather

Lexington, Massachusetts, USA

70°F
8/17/2022 6:38pm 
  • Lexington Conditions: Overcast
  • Temperature: 69.8°F / 21.0°CColder 0.2°F than last hour.
  • Dew Point: 58.3°FDecreased 0.2°Fsince last hour.
  • Relative Humidity: 67
  • Wind: Calm, 10-min avg: Calm, gust: 3 mph
  • Barometer: 29.85 in Steady
  • Visibility: 10 miles
  • Rain Today: 0.00 in
  •   

Regional Weather Roundup
for Boston, MA

        
000
ASUS41 KBOX 171210
RWRBOX

REGIONAL WEATHER ROUNDUP
NATIONAL WEATHER SERVICE BOSTON/NORTON MA
800 AM EDT WED AUG 17 2022

NOTE:  "FAIR" INDICATES FEW OR NO CLOUDS BELOW 12,000 FEET WITH NO 
SIGNIFICANT WEATHER AND/OR OBSTRUCTIONS TO VISIBILITY.

MAZALL-171300-
EASTERN MASSACHUSETTS
  
CITY           SKY/WX    TMP DP  RH WIND       PRES   REMARKS
BOSTON         CLOUDY    68  60  75 N13       29.98F                  
6HR MIN TEMP:  66; 6HR MAX TEMP:  69; 6HR PCP:  0.01;                

BEVERLY        SUNNY     67  61  81 N6        29.98F                  
LAWRENCE       SUNNY     69  59  70 N12       30.02S                  
BEDFORD        CLOUDY    68  60  75 N8        29.99S                  
BLUE HILL      NOT AVBL                                               
NORWOOD        CLOUDY    67  50  54 NW5       29.98F                  
MARSHFIELD     MOSUNNY   68  63  83 VRB7G15   29.95F                  
PLYMOUTH       CLOUDY    64  63  96 N9        29.95F                  
TAUNTON          N/A    N/A N/A N/A MISG      29.96F                  
NEW BEDFORD    PTSUNNY   65  63  93 VRB6      29.95F                  
$$

MAZALL-171300-
CAPE COD AND THE ISLANDS
  
CITY           SKY/WX    TMP DP  RH WIND       PRES   REMARKS
FALMOUTH       MOSUNNY   66  63  88 N8        29.94F                  
HYANNIS        CLOUDY    67  62  84 N12       29.91F                  
CHATHAM        CLOUDY    66  62  87 N8        29.92F                  
NANTUCKET      CLOUDY    69  65  86 N17G23    29.91F                  
MARTHAS VNYRD  PTSUNNY   68  64  87 N12       29.94S                  
$$
 
MAZALL-171300-
CENTRAL AND WESTERN MASSACHUSETTS
  
CITY           SKY/WX    TMP DP  RH WIND       PRES   REMARKS
WORCESTER      CLOUDY    67  57  70 N10       30.03R                  
6HR MIN TEMP:  63; 6HR MAX TEMP:  67; 6HR PCP: TRACE;                

FITCHBURG      CLOUDY    68  55  63 N8        30.03R                  
ORANGE         CLOUDY    66  58  75 CALM      30.05R                  
SPRINGFIELD    LGT RAIN  66  58  76 N5        30.00S                  
WESTFIELD      LGT RAIN  68  57  68 N6        30.02S                  
NORTH ADAMS    CLOUDY    62  60  93 CALM      30.07S                  
PITTSFIELD     PTSUNNY   64  56  75 CALM      30.06S                  
$$
 
RIZALL-171300-
RHODE ISLAND
  
CITY           SKY/WX    TMP DP  RH WIND       PRES   REMARKS
PROVIDENCE     LGT RAIN  65  61  87 N8        29.99S                  
6HR MIN TEMP:  63; 6HR MAX TEMP:  66; 6HR PCP:  0.03;                

NEWPORT        LGT RAIN  64  63  96 NW7       29.97S                  
BLOCK ISLAND   CLOUDY    63  60  90 N6        29.99S                  
SMITHFIELD     MOSUNNY   63  61  93 N7        30.00S                  
WESTERLY       NOT AVBL                                               
$$
 
CTZALL-171300-
CONNECTICUT
  
CITY           SKY/WX    TMP DP  RH WIND       PRES   REMARKS
BRADLEY INTL   CLOUDY    66  60  81 NW5       30.02S                  
6HR MIN TEMP:  65; 6HR MAX TEMP:  68; 6HR PCP:  0.01;                

HARTFORD       LGT RAIN  66  62  87 CALM      30.02S                  
BRIDGEPORT     CLOUDY    68  56  65 N6        30.03R                  
DANBURY        PTSUNNY   66  57  72 CALM      30.05S                  
GROTON         LGT RAIN  65  61  87 NW7       30.00S                  
NEW HAVEN      CLOUDY    68  62  81 N3        30.03S                  
CHESTER        LGT RAIN  63  61  94 NW5       30.03R                  
MERIDEN        LGT RAIN  64  59  83 CALM      30.03R                  
WILLIMANTIC    CLOUDY    62  60  93 CALM      30.02R                  
OXFORD         LGT RAIN  63  59  87 N5        30.05S                  
$$

MEZ002-015-021-024-NHZ003-005-008-011-012-014-VTZ005-008-171300-
NORTHERN NEW ENGLAND
  
CITY           SKY/WX    TMP DP  RH WIND       PRES   REMARKS
PORTLAND ME    CLOUDY    68  57  68 N9        30.02S                  
6HR MIN TEMP:  66; 6HR MAX TEMP:  68;                                

BANGOR ME      CLOUDY    66  58  75 N15       30.03F                  
CONCORD NH     MOSUNNY   67  59  75 CALM      30.04R                  
MANCHESTER NH  CLOUDY    70  58  65 N8        30.01S                  
NASHUA NH      CLOUDY    68  62  81 NW7       30.03R                  
PORTSMOUTH NH  CLOUDY    68  55  62 N10       30.00S                  
JAFFREY NH     MOSUNNY   66  57  72 CALM      30.06R                  
KEENE NH       PTSUNNY   64  60  87 CALM        N/A                   
BURLINGTON VT  PTSUNNY   65  60  84 CALM      30.09S                  
MT. WASHINGTON FOG       43  43 100 NE39        N/A  VSB 1/16WCI  31  
$$

NYZ052-076-171300-
EASTERN NEW YORK
  
CITY           SKY/WX    TMP DP  RH WIND       PRES   REMARKS
ALBANY         CLOUDY    66  62  87 W5        30.06S                  
6HR MIN TEMP:  65; 6HR MAX TEMP:  68; 6HR PCP:  0.04;                

NEW YORK CITY  PTSUNNY   71  54  54 NE7       30.02S                  
6HR MIN TEMP:  68; 6HR MAX TEMP:  73;                                

$$
 
ANZALL-171300-
MARINE OBSERVATIONS
  
STATION/POSITION TIME  TEMP    WIND        PRES    VSBY  WAVE
                       AIR SEA DIR/SP/G                  HT/PER
                 (UTC) (F)     (DEG/KT/KT) (MB)    (MI)  (FT/S)
BOSTON BUOY      NOT AVBL
BUZZARDS BAY     NOT AVBL
NANTUCKET SOUND  NOT AVBL
MASS BAY-STELLWA NOT AVBL
ISLE OF SHOALS   NOT AVBL
S OF BLOCK IS    NOT AVBL
$$

......................KEY.........................
  SKY/WX - SKY CONDITION/PRESENT WEATHER
  TMP    - TEMPERATURE IN FAHRENHEIT
  DWPT   - DEWPOINT IN FAHRENHEIT
  RH     - RELATIVE HUMIDITY IN PERCENT
  WIND   - DIRECTION AND SPEED IN MPH
  PRES   - MEAN SEA LEVEL PRESSURE IN INCHES OF HG
  WCI    - WIND CHILL INDEX
  VSB    - VISIBILITY IN MILES
  HX     - HEAT INDEX
  TC     - TEMPERATURE IN CELSIUS
  VRB    - VARIABLE WIND DIRECTION
  N/A    - NOT AVAILABLE
  
      

Other recent Regional Weather Roundups

Wed Aug 17, 6:10pm

Wed Aug 17, 5:10pm

Wed Aug 17, 4:10pm

Wed Aug 17, 3:10pm

Wed Aug 17, 2:10pm

Wed Aug 17, 1:10pm

Wed Aug 17, 12:10pm

Wed Aug 17, 11:10am

Wed Aug 17, 10:10am

Wed Aug 17, 9:10am

Wed Aug 17, 7:10am

Wed Aug 17, 6:10am

Wed Aug 17, 5:10am

Wed Aug 17, 4:10am

Wed Aug 17, 3:10am

Wed Aug 17, 2:10am

Wed Aug 17, 1:10am

Wed Aug 17, 12:10am

Tue Aug 16, 11:10pm

Tue Aug 16, 10:10pm

Tue Aug 16, 9:10pm

Tue Aug 16, 8:10pm

Tue Aug 16, 7:10pm

Tue Aug 16, 6:10pm

Tue Aug 16, 5:10pm

Tue Aug 16, 4:10pm

Tue Aug 16, 3:10pm

Tue Aug 16, 2:10pm

Tue Aug 16, 1:10pm

Tue Aug 16, 12:10pm

Tue Aug 16, 11:10am

Tue Aug 16, 10:10am

Tue Aug 16, 9:10am

Tue Aug 16, 8:10am

Tue Aug 16, 7:10am

Tue Aug 16, 6:10am

Tue Aug 16, 5:10am

Tue Aug 16, 4:10am

Tue Aug 16, 3:10am

Tue Aug 16, 2:10am

Tue Aug 16, 1:10am

Tue Aug 16, 12:10am

Mon Aug 15, 11:10pm

Mon Aug 15, 10:10pm

Mon Aug 15, 9:10pm

Mon Aug 15, 8:10pm

Mon Aug 15, 7:10pm

Mon Aug 15, 6:10pm

Mon Aug 15, 5:10pm

Mon Aug 15, 4:10pm

Mon Aug 15, 3:10pm

Mon Aug 15, 2:10pm

Mon Aug 15, 1:10pm

Mon Aug 15, 12:10pm

Mon Aug 15, 11:10am

Mon Aug 15, 10:10am

Mon Aug 15, 9:10am

Mon Aug 15, 8:10am

Mon Aug 15, 7:10am

Mon Aug 15, 6:10am

Mon Aug 15, 5:10am

Mon Aug 15, 4:10am

Mon Aug 15, 3:10am

Mon Aug 15, 2:10am

Mon Aug 15, 1:10am

Mon Aug 15, 12:10am

Sun Aug 14, 11:10pm

Sun Aug 14, 10:10pm

Sun Aug 14, 9:10pm

Sun Aug 14, 8:10pm

Sun Aug 14, 7:10pm

Sun Aug 14, 6:10pm

Sun Aug 14, 5:10pm

Sun Aug 14, 4:10pm

Sun Aug 14, 3:10pm

Sun Aug 14, 2:10pm

Sun Aug 14, 1:10pm

Sun Aug 14, 12:10pm

Sun Aug 14, 11:10am

Sun Aug 14, 10:10am

Sun Aug 14, 9:10am

Sun Aug 14, 8:10am

Sun Aug 14, 7:10am

Sun Aug 14, 6:10am

Sun Aug 14, 5:10am

Sun Aug 14, 4:10am

Sun Aug 14, 3:10am

Sun Aug 14, 2:10am

Sun Aug 14, 1:10am

Sun Aug 14, 12:10am

Sat Aug 13, 11:10pm

Sat Aug 13, 10:10pm

Sat Aug 13, 9:10pm

Sat Aug 13, 8:10pm

Sat Aug 13, 7:10pm

Sat Aug 13, 6:10pm

Sat Aug 13, 5:10pm

Sat Aug 13, 4:10pm

Sat Aug 13, 3:10pm

Sat Aug 13, 2:10pm

Sat Aug 13, 1:10pm

Sat Aug 13, 12:10pm

Sat Aug 13, 11:10am

Sat Aug 13, 10:10am

Sat Aug 13, 9:10am

Sat Aug 13, 8:10am

Sat Aug 13, 7:10am

Sat Aug 13, 6:10am

Sat Aug 13, 5:10am

Sat Aug 13, 4:10am

Sat Aug 13, 3:10am

Sat Aug 13, 2:10am

Sat Aug 13, 1:10am

Sat Aug 13, 12:10am

Fri Aug 12, 11:10pm

Fri Aug 12, 10:10pm

Fri Aug 12, 9:10pm

Fri Aug 12, 8:10pm

Fri Aug 12, 7:10pm

Fri Aug 12, 6:10pm

Fri Aug 12, 5:10pm

Fri Aug 12, 4:10pm

Fri Aug 12, 3:10pm

Fri Aug 12, 2:10pm

Fri Aug 12, 1:10pm

Fri Aug 12, 12:10pm

Fri Aug 12, 11:10am

Fri Aug 12, 10:10am

Fri Aug 12, 9:10am

Fri Aug 12, 8:10am

Fri Aug 12, 7:10am

Fri Aug 12, 6:10am

Fri Aug 12, 5:10am

Fri Aug 12, 4:10am

Fri Aug 12, 3:10am

Fri Aug 12, 2:10am

Fri Aug 12, 1:10am

Fri Aug 12, 12:10am

Thu Aug 11, 11:10pm

Thu Aug 11, 10:10pm

Thu Aug 11, 9:10pm

Thu Aug 11, 8:10pm

Thu Aug 11, 7:10pm

Thu Aug 11, 6:10pm

Thu Aug 11, 5:10pm

Thu Aug 11, 4:10pm

Thu Aug 11, 3:10pm

Thu Aug 11, 2:10pm

Thu Aug 11, 1:10pm

Thu Aug 11, 12:10pm

Thu Aug 11, 11:10am

Thu Aug 11, 10:10am

Thu Aug 11, 9:10am

Thu Aug 11, 8:10am

Thu Aug 11, 7:10am

Thu Aug 11, 6:10am

Thu Aug 11, 5:10am

Thu Aug 11, 4:10am

Thu Aug 11, 3:10am

Thu Aug 11, 2:10am

Thu Aug 11, 1:10am

Thu Aug 11, 12:10am

Wed Aug 10, 11:10pm

Wed Aug 10, 10:10pm

Wed Aug 10, 9:10pm

Wed Aug 10, 8:10pm

Wed Aug 10, 7:10pm

Meta data:

ID: 9072e394-600e-49c4-b193-6982a957ff76
Link: https://api.weather.gov/products/9072e394-600e-49c4-b193-6982a957ff76